Regional Weather Roundup
Issued by NWS Memphis, TN

Home | Current Version | Previous Version | Text Only | Print | Product List | Glossary On
Versions: 1 2 3 4 5 6 7 8 9 10 11 12 13 14 15 16 17 18 19 20 21 22 23 24 25 26 27 28 29 30 31 32 33 34 35 36 37 38 39 40 41 42 43 44 45 46 47 48 49 50
000
ASUS44 KMEG 091310
RWRMEG
MEMPHIS CWA HOURLY WEATHER ROUNDUP
NATIONAL WEATHER SERVICE MEMPHIS TN
700 AM CST FRI DEC 09 2016

...WEST TENNESSEE...

CITY           SKY/WX    TMP DP  RH WIND       PRES   REMARKS
MEMPHIS INTL   PTCLDY    23  15  71 N5        30.64S WCI  17
NWS MEMPHIS      N/A     21 N/A N/A MISG        N/A
JACKSON        CLEAR     22  16  78 N6        30.63S WCI  14
BOLIVAR        CLEAR     19  16  86 CALM      30.62S
LEXINGTON      CLEAR     19  12  73 NW6       30.60R WCI  11
DYERSBURG      PTCLDY    21  14  73 N3        30.64S
UNION CITY     CLEAR     18  12  79 NW5       30.62S WCI  11
PARIS          CLEAR     16  10  79 CALM      30.62R
HUNTINGDON     PTCLDY    21  16  79 CALM      30.62R


...EASTERN ARKANSAS...

CITY           SKY/WX    TMP DP  RH WIND       PRES   REMARKS
JONESBORO      CLEAR     22  15  75 NW3       30.68R
WEST MEMPHIS   CLEAR     23  17  78 N5        30.66R WCI  17
BATESVILLE     PTCLDY    19  14  79 W3        30.69R
NEWPORT        CLEAR     20  16  84 NW8       30.70R WCI  10
WALNUT RIDGE   CLEAR     21  12  68 NW9       30.68R WCI  11
BLYTHEVILLE    CLEAR     21  16  81 NW6       30.67S WCI  13
SEARCY         CLEAR     18  16  92 N3        30.71S
STUTTGART      CLEAR     25  12  58 N9        30.69R WCI  15
PINE BLUFF     CLEAR     26  18  71 N10G16    30.69R WCI  16
MONTICELLO     CLEAR     26  17  68 VRB3      30.67R


...NORTH MISSISSIPPI...

CITY           SKY/WX    TMP DP  RH WIND       PRES   REMARKS
TUPELO         CLEAR     23  15  71 NW6       30.62R WCI  16
OXFORD         CLEAR     19  16  86 CALM      30.64F
BATESVILLE     CLEAR     22  19  87 CALM      30.66S
OLIVE BRANCH   CLEAR    N/A N/A N/A N3        30.63
TUNICA         CLEAR     21  18  86 N6        30.68R WCI  14
CLARKSDALE     CLEAR     27  21  80 N9        30.67R WCI  17
CORINTH        CLEAR     21  16  79 NW3       30.61S
GREENWOOD      CLEAR     24  18  77 N7        30.64S WCI  16
COLUMBUS       CLEAR     25  19  80 NW3       30.61R
STARKVILLE     CLEAR     23  19  86 CALM      30.63R
GOLDEN TRIANGL CLEAR     25  16  68 N7        30.56R WCI  17


...SOUTHEAST MISSOURI...

CITY           SKY/WX    TMP DP  RH WIND       PRES   REMARKS
KENNETT        CLEAR     23  18  80 NW5       30.66R WCI  17
WEST PLAINS    CLEAR     12   8  84 SW3       30.62R
POPLAR BLUFF   CLEAR     19  13  77 NW5       30.66S WCI  12
CAPE GIRARDEAU CLEAR     18  13  80 CALM      30.65R


...NORTHWEST ALABAMA...

CITY           SKY/WX    TMP DP  RH WIND       PRES   REMARKS
MUSCLE SHOALS  CLEAR     25  15  66 N6        30.61R WCI  18


...MIDDLE TENNESSEE...

CITY           SKY/WX    TMP DP  RH WIND       PRES   REMARKS
NASHVILLE      CLOUDY    26  14  60 N8        30.59R WCI  18
CLARKSVILLE    CLOUDY    21  15  78 W5        30.60R WCI  15
COLUMBIA       CLEAR     19  18  93 CALM      30.56R


...WESTERN KENTUCKY...

CITY           SKY/WX    TMP DP  RH WIND       PRES   REMARKS
PADUCAH        CLEAR     19  12  74 W5        30.62S WCI  12
FORT CAMPBELL  CLOUDY    23  16  75 NW3       30.59R


...CENTRAL ARKANSAS...

CITY           SKY/WX    TMP DP  RH WIND       PRES   REMARKS
LITTLE ROCK    CLEAR     20  16  84 N7        30.70R WCI  11


SKY/WX REPORTED AS FAIR MEANS FEW OR NO CLOUDS BELOW
12 THOUSAND FEET.




USA.gov is the U.S. government's official web portal to all federal, state and local government web resources and services.